Location: Byszew
(52.1813°N, 19.2693°E)
Time: 20:02:36
(UTC+00:00)

EO-79 - Visible Passes

Search period start: 27 June 2022 00:00
Search period end: 07 July 2022 00:00
Orbit: 587 x 605 km, 98.0° (Epoch: 27 June)

Date Brightness Start Highest point End Pass type
(mag) Time Alt. Az. Time Alt. Az. Time Alt. Az.
27 Jun ? 00:17:37 10° NNE 00:21:46 53° E 00:25:20 13° S visible
28 Jun ? 00:27:30 10° NNE 00:31:43 67° ESE 00:35:21 14° S visible
28 Jun ? 23:04:10 10° ENE 23:05:19 11° E 23:06:29 10° ESE visible
29 Jun ? 00:37:24 10° NNE 00:41:39 83° ESE 00:45:22 13° SSW visible
29 Jun ? 23:13:13 10° ENE 23:15:23 14° E 23:17:31 10° ESE visible
30 Jun ? 00:47:19 10° NNE 00:51:34 81° WNW 00:55:23 13° SSW visible
30 Jun ? 23:22:39 10° NE 23:25:25 17° E 23:28:09 10° SE visible
01 Jul ? 00:57:15 10° N 01:01:27 65° WNW 01:05:23 12° SSW visible
01 Jul ? 23:32:14 10° NE 23:35:25 20° E 23:38:35 10° SE visible
02 Jul ? 01:07:13 10° N 01:11:21 53° WNW 01:15:23 10° SW visible
02 Jul ? 23:41:55 10° NE 23:45:25 25° E 23:48:43 11° SSE visible
03 Jul ? 01:17:12 10° N 01:21:13 43° WNW 01:25:13 10° SW visible
03 Jul ? 23:51:38 10° NNE 23:55:24 30° E 23:58:42 12° SSE visible
04 Jul ? 01:27:12 10° N 01:31:04 35° WNW 01:34:56 10° SW visible
05 Jul ? 00:01:25 10° NNE 00:05:22 37° E 00:08:41 14° SSE visible
05 Jul ? 01:37:13 10° N 01:40:54 29° WNW 01:44:35 10° SW visible
06 Jul ? 00:11:13 10° NNE 00:15:19 46° E 00:18:40 14° S visible
